Powrót do katalogu

AEROCUBE 18A

AktywnyNaukaSSO
NORAD 63220·PAYLOAD·🇺🇸 United States

Wystrzelony Mar 15, 2025 z Vandenberg Space Force Base

Loading…

Następne Przeloty (najbliższe 24 godziny)

TLE

ŚwieżeSource: Space-Track

Epoka: Sep 14, 2026, 11:14 UTC

1 63220U 25052L   26257.46813639  .00004669  00000-0  18810-3 0  9995
2 63220  97.3822 149.7865 0004670 147.0675 213.0855 15.25329753 83505

Śledź AEROCUBE 18A w czasie rzeczywistym z AllMySat

Download on the App Store